Weather Roundup
Issued by NWS Chicago, IL

Home | Current Version | Previous Version | Graphics & Text | Print | Product List | Glossary On
Versions: 1 2 3 4 5 6 7 8 9 10 11 12 13 14 15 16 17 18 19 20 21 22 23 24 25 26 27 28 29 30 31 32 33 34 35 36 37 38 39 40 41 42 43 44 45 46 47 48 49 50
000
NZUS59 KLOT 010206
HRRLOT

CHICAGO AREA WEATHER ROUNDUP
NATIONAL WEATHER SERVICE CHICAGO/ROMEOVILLE IL
800 PM CST SAT FEB 28 2015

NOTE: "FAIR" INDICATES FEW OR NO CLOUDS BELOW 12,000 FEET WITH NO
SIGNIFICANT WEATHER AND/OR OBSTRUCTIONS TO VISIBILITY.

* THESE STATIONS ARE NOT UNDER NWS QUALITY CONTROL. THEY ALSO MAY NOT
  REPORT WEATHER SUCH AS PRECIPITATION OR FOG.

ILZ005-006-012>014-019>023-010300-
NORTHEAST ILLINOIS

CITY           SKY/WX    TMP DP  RH WIND       PRES   REMARKS
OHARE          LGT SNOW  18  12  77 S9        30.52F WCI   7
MIDWAY         LGT SNOW  20  13  74 SE7       30.53F WCI  11
AURORA         CLOUDY    19  11  70 E8        30.51F HAZE    WCI   9
LANSING*       LGT SNOW  19  15  84 E5        30.54F WCI  12
JOLIET*        CLOUDY    19  12  75 SE8       30.53F HAZE    WCI   9
WAUKEGAN       CLOUDY    19   7  59 S9        30.51F WCI   8
DUPAGE AIRPORT LGT SNOW  18  13  80 SE7       30.50F WCI   9
WHEELING       CLOUDY    20   6  55 S7        30.53F WCI  11
KANKAKEE*      LGT SNOW  20  17  91 E9        30.53F WCI   9
MORRIS*        LGT SNOW  19  17  93 SE5       30.52F WCI  12
LEWIS AIRPORT* MIX PCPN  19  13  79 SE7       30.52F WCI   9
NORTHERLY IS     N/A     18  13  80 S6          N/A  WCI  10
$$

WIZ051-052-058>065-066-070>072-010300-
SOUTHEAST WISCONSIN

CITY           SKY/WX    TMP DP  RH WIND       PRES   REMARKS
MILWAUKEE      CLOUDY    18   7  62 S7        30.51F WCI   9
KENOSHA*       CLOUDY    20  10  65 S8        30.51F WCI  10
RACINE*        CLOUDY    20   8  60 S7        30.53F WCI  11
BURLINGTON     CLOUDY    15   2  57 CALM      30.50F
WAUKESHA       CLOUDY    16   1  53 S8        30.50S WCI   5
WEST BEND      CLOUDY    18   0  45 S5        30.48S WCI  11
$$

INZ001>003-010>013-019-020-010300-
NORTHWEST INDIANA

CITY           SKY/WX    TMP DP  RH WIND       PRES   REMARKS
GARY*          LGT SNOW  19  12  73 SE5       30.55F WCI  13
MICHIGAN CITY* NOT AVBL
RENSSELAER*    NOT AVBL
VALPARAISO     LGT SNOW  19  10  68 SE8       30.53F WCI   9
$$

LMZ740>746-010300-
SOUTHERN LAKE MICHIGAN

STATION/POSITION TIME  SKY/WX   TEMP WIND        PRES    VSBY
                                AIR  DIR/SP/G
                 (UTC)          (F)  (DEG/KT/KT) (MB)    (MI)
HARRISON CRIB    0200            18  170/ 15/ 17   N/A
BURNHAM HARBOR   0200            19  170/  5/ 12   N/A
CALUMET HARBOR   0200            18  140/  4/  6 1032.8S
BURNS HARBOR     NOT AVBL
MICHIGAN CITY    0200            20  130/  7/ 11   N/A
$$

ABBREVIATIONS USED IN REMARKS
   TC - TEMPERATURE IN CELSIUS
  WCI - WIND CHILL INDEX
   HX - HEAT INDEX
  VSB - VISIBILITY
$$


USA.gov is the U.S. government's official web portal to all federal, state and local government web resources and services.